Greenwood, Nova Scotia

7:14 PM ADT on August 17, 2017 (GMT -0300)
Greenwood

Weather History for CYZX - July, 2013

Change the Weather History Date:

Tuesday, July 23, 2013

  Actual Average Record
Temperature  
Mean Temperature 66 °F -  
Max Temperature 74 °F 76 °F 91 °F (2002)
Min Temperature 57 °F 54 °F 48 °F (1996)
Growing Degree Days 16 (Base 50)    
Moisture  
Dew Point 61 °F    
Average Humidity 80    
Maximum Humidity 100    
Minimum Humidity 45    
Precipitation  
Precipitation 0.35 in 0.11 in - ()
Sea Level Pressure  
Sea Level Pressure 29.81 in    
Wind  
Wind Speed 5 mph ()    
Max Wind Speed 22 mph    
Max Gust Speed 28 mph    
Visibility 10.1 miles    
Events Rain    
Averages and records for this station are not official NWS values.
T = Trace of Precipitation, MM = Missing Value Source: Averaged Metar Reports

Daily Weather History Graph

Daily Weather History Graph

Search for Another Location

Airport or City:

Trip Planner

Search our weather history database for the weather conditions in past years. The results will help you decide how hot, cold, wet, or windy it might be!

Date:

Astronomy

Jul. 23, 2013 Rise Set
Actual Time 5:55 AM ADT 8:56 PM ADT
Civil Twilight 5:20 AM ADT 9:31 PM ADT
Nautical Twilight 4:35 AM ADT 10:15 PM ADT
Astronomical Twilight 3:42 AM ADT 11:08 PM ADT
Moon 9:14 PM ADT (7/23) 7:04 AM ADT (7/23)
Length of Visible Light 16h 10m
Length of Day
15h 00m
Full, 99% of the Moon is Illuminated
Jul 23
Full
Jul 29
Last Quarter
Aug 6
New
Aug 14
First Quarter
Aug 20
Full

Hourly Weather History & Observations

Time (ADT) Temp. Dew Point Humidity Pressure Visibility Wind Dir Wind Speed Gust Speed Precip Events Conditions
12:00 AM 60.8 °F 55.4 °F 82% 30.03 in 15.0 mi East 2.3 mph - N/A   Scattered Clouds
1:00 AM 60.8 °F 55.4 °F 82% 30.03 in 15.0 mi ENE 2.3 mph - N/A   Mostly Cloudy
2:00 AM 62.6 °F 55.4 °F 77% 30.00 in 15.0 mi Calm Calm - N/A   Mostly Cloudy
3:00 AM 64 °F 48 °F 45% 29.99 in 15 mi East 2.3 mph - -   Scattered Clouds
3:00 AM 64.4 °F 48.2 °F 56% 29.99 in 15.0 mi ESE 2.3 mph - N/A   Mostly Cloudy
4:00 AM 62.6 °F 48.2 °F 59% 29.98 in 15.0 mi SE 3.5 mph - N/A   Scattered Clouds
5:00 AM 60.8 °F 51.8 °F 72% 29.98 in 15.0 mi ESE 2.3 mph - N/A   Scattered Clouds
6:00 AM 62.6 °F 55.4 °F 77% 29.97 in 15.0 mi Calm Calm - N/A   Partly Cloudy
7:00 AM 62.6 °F 55.4 °F 77% 29.95 in 15.0 mi NE 3.5 mph - N/A   Scattered Clouds
8:00 AM 66.2 °F 55.4 °F 68% 29.94 in 15.0 mi East 3.5 mph - N/A   Mostly Cloudy
9:00 AM 70 °F 57 °F 54% 29.93 in 15 mi East 4.6 mph - -   Scattered Clouds
9:00 AM 69.8 °F 57.2 °F 64% 29.92 in 15.0 mi ENE 3.5 mph - N/A   Mostly Cloudy
10:00 AM 71.6 °F 55.4 °F 57% 29.89 in 15.0 mi ESE 9.2 mph 17.3 mph N/A   Overcast
11:00 AM 73.4 °F 57.2 °F 57% 29.86 in 15.0 mi ESE 9.2 mph - N/A   Overcast
11:28 AM - - N/A% - 12.0 mi East 6.9 mph - N/A Rain Light Rain Showers
12:00 PM 71.6 °F 60.8 °F 69% 29.83 in 6.0 mi East 9.2 mph - N/A Rain Light Rain Showers
12:34 PM - - N/A% - 5.0 mi East 4.6 mph - N/A Rain Light Rain Showers
1:00 PM 68.0 °F 66.2 °F 94% 29.81 in 4.0 mi East 12.7 mph 18.4 mph N/A Rain Light Rain Showers
1:10 PM - - N/A% - 2.0 mi East 21.9 mph 27.6 mph N/A Rain Light Rain Showers
1:50 PM - - N/A% - 8.0 mi NE 9.2 mph - N/A Rain Light Rain Showers
2:00 PM 64.4 °F 62.6 °F 94% 29.77 in 5.0 mi NE 11.5 mph - N/A Rain Light Rain Showers
2:10 PM - - N/A% - 2.0 mi NE 13.8 mph - N/A Rain Light Rain Showers
2:21 PM - - N/A% - 1.0 mi ENE 15.0 mph - N/A Rain Light Rain Showers
2:44 PM - - N/A% - 4.0 mi NE 11.5 mph - N/A Rain Light Rain Showers
3:00 PM 64 °F 64 °F 100% 29.74 in 3 mi NE 12.7 mph - - Rain Light Rain Showers
3:00 PM 64.4 °F 64.4 °F 100% 29.73 in 3.0 mi NE 12.7 mph - N/A Rain Light Rain Showers
4:00 PM 66.2 °F 66.2 °F 100% 29.70 in 4.0 mi ENE 10.4 mph - N/A Rain Light Rain Showers
5:00 PM 69.8 °F 68.0 °F 94% 29.66 in 6.0 mi East 5.8 mph - N/A Rain Light Rain Showers
6:00 PM 71.6 °F 69.8 °F 94% 29.63 in 4.0 mi ENE 3.5 mph - N/A Rain Light Rain Showers
7:00 PM 73.4 °F 71.6 °F 94% 29.59 in 6.0 mi SSE 2.3 mph - N/A Rain Light Rain Showers
8:00 PM 73.4 °F 71.6 °F 94% 29.57 in 10.0 mi South 5.8 mph - N/A Rain Light Rain Showers
9:00 PM 73 °F 72 °F 94% 29.57 in 15 mi South 8.1 mph - - Rain Light Rain Showers
9:00 PM 73.4 °F 71.6 °F 94% 29.57 in 15.0 mi South 5.8 mph - N/A Rain Light Rain Showers
10:00 PM 73.4 °F 71.6 °F 94% 29.57 in 15.0 mi SSW 8.1 mph - N/A Rain Light Rain Showers
11:00 PM 73.4 °F 71.6 °F 94% 29.58 in 15.0 mi SSW 10.4 mph - N/A Rain Light Rain Showers